Preview of NWS' New Version of Forecast
This preview is not operational and should not be used for support decisions.

Regional Weather Roundup (RWR)

Issued by National Weather Service (NWS)

                            
000
ASUS46 KSEW 211510
RWRWA 

WASHINGTON REGIONAL WEATHER ROUNDUP
NATIONAL WEATHER SERVICE SEATTLE WA
800 AM PDT SAT SEP 21 2019

NOTE:"FAIR" INDICATES FEW OR NO CLOUDS BELOW 12,000 FEET WITH NO 
SIGNIFICANT WEATHER AND/OR OBSTRUCTIONS TO VISIBILITY.

WAZ507-509-555>559-211600-
SEATTLE, TACOMA, EVERETT, AND VICINITY
  
CITY           SKY/WX    TMP DP  RH WIND       PRES   REMARKS
EVERETT        CLOUDY    57  55  93 S5        30.16R                  
BOEING FIELD   NOT AVBL                                               
RENTON         CLOUDY    59  54  83 CALM      30.15R                  
SEATAC AIRPORT PTSUNNY   58  54  86 CALM      30.15S                  
JBLM-MCCHORD   SUNNY     50  50 100 CALM      30.16R                  
PUYALLUP       DRIZZLE   55  55 100 CALM      30.16R                  
BREMERTON      CLOUDY    55  54  96 SW3       30.15S                  
JBLM-FT LEWIS  SUNNY     51  51 100 CALM      30.15R FOG              
TACOMA NARROWS CLOUDY    55  54  96 CALM      30.15R                  
$$
 
WAZ001-503-506-510-514-515-211600-
NORTH INTERIOR
  
CITY           SKY/WX    TMP DP  RH WIND       PRES   REMARKS
BELLINGHAM     CLOUDY    59  53  80 S6        30.14R                  
FRIDAY HARBOR  CLOUDY    53  52  96 CALM      30.14F FOG              
EASTSOUND      CLOUDY    57  54  88 CALM      30.13S                  
PORT ANGELES   CLOUDY    53  50  89 SW6       30.14S                  
EDIZ HOOK      CLOUDY    55  52  88 SW5       30.14S                  
PORT TOWNSEND  CLOUDY    55  55 100 CALM      30.14R                  
NAS WHIDBEY    MOCLDY    55  52  89 E6        30.18S                  
ARLINGTON      CLOUDY    54  53  97 N3        30.16R                  
BURLINGTON     CLOUDY    55  55 100 CALM      30.15S                  
$$
 
WAZ020-022-039-040-504-511-512-211600-
SOUTHWEST INTERIOR
  
CITY           SKY/WX    TMP DP  RH WIND       PRES   REMARKS
SHELTON        FOG       56  54  93 SW3       30.13S VSB 1            
OLYMPIA        MOCLDY    51  51 100 S5        30.16S FOG              
CHEHALIS       CLOUDY    54  54 100 CALM      30.16S                  
KELSO          CLOUDY    58  56  93 CALM      30.17R                  
VANCOUVER      PTSUNNY   58  55  90 CALM      30.16R                  
SCAPPOOSE, OR  CLOUDY    52  51  97 CALM      30.16R                  
PORTLAND, OR   PTSUNNY   59  55  87 CALM      30.16R                  
$$
 
WAZ021-516-517-211600-
WASHINGTON COAST
  
CITY           SKY/WX    TMP DP  RH WIND       PRES   REMARKS
FORKS          CLOUDY    55  54  96 CALM      30.13F FOG              
HOQUIAM        CLOUDY    56  56 100 CALM      30.15S FOG              
ASTORIA, OR    CLOUDY    59  58  96 CALM      30.14S                  
$$
 
WAZ019-023-024-040-567>569-211600-
CASCADE MOUNTAINS AND COLUMBIA GORGE
  
CITY           SKY/WX    TMP DP  RH WIND       PRES   REMARKS
STAMPEDE PASS  NOT AVBL                                               
TROUTDALE, OR  CLOUDY    60  55  83 CALM      30.16R                  
HOOD RIVER, OR SUNNY     52  46  82 S7        30.13S                  
THE DALLES, OR SUNNY     55  48  77 SE3       30.12R                  
$$

WAZ026-027-041>044-520-521-211600-
EAST SLOPES
  
CITY           SKY/WX    TMP DP  RH WIND       PRES   REMARKS
OMAK           SUNNY     50  42  74 NW6       30.10R                  
WENATCHEE      SUNNY     53  45  74 W5        30.08S                  
ELLENSBURG     SUNNY     53  44  71 W3        30.10R                  
YAKIMA         SUNNY     48  42  80 W7        30.10S                  
SUNNYSIDE ARPT SUNNY     50  47  89 CALM      30.11R                  
YAKIMA TC      FAIR      48  43  81 CALM      30.08S                  
$$

WAZ028-034-035-211600-
COLUMBIA BASIN
  
CITY           SKY/WX    TMP DP  RH WIND       PRES   REMARKS
EPHRATA        SUNNY     49  44  83 N5        30.08R                  
MOSES LAKE     SUNNY     50  44  80 E3        30.09R                  
PASCO          SUNNY     59  49  69 S5        30.11R                  
RICHLAND ARPT  SUNNY     59  50  73 CALM      30.10                   
HERMISTON, OR  SUNNY     58  48  69 S7        30.11S                  
$$

WAZ036>038-211600-
NORTHEAST WASHINGTON
  
CITY           SKY/WX    TMP DP  RH WIND       PRES   REMARKS
SPOKANE GEIGER PTSUNNY   46  43  89 S6        30.10R                  
SPOKANE FELTS  SUNNY     51  47  86 CALM      30.12R                  
FAIRCHILD AFB  NOT AVBL                                               
COEURDALENE,ID MOSUNNY   46  45  96 CALM      30.13R                  
DEER PARK      CLOUDY    44  43  96 CALM      30.12R                  
$$

WAZ029>033-211600-
SOUTHEAST WASHINGTON
  
CITY           SKY/WX    TMP DP  RH WIND       PRES   REMARKS
PULLMAN        PTSUNNY   51  47  86 CALM      30.15R                  
LEWISTON, ID   MOSUNNY   56  51  84 E6        30.12R                  
WALLA WALLA    MOSUNNY   57  47  69 S6        30.12R                  
PENDLETON, OR  MOSUNNY   51  46  83 S8        30.13R                  
$$